Wetbulb
42.51 41.59 40.49 39.94 39.40 39.15 39.53 40.02 40.28 40.00 39.41 39.69 40.12 39.88 39.74 39.49 39.27 38.59 38.89 39.20 37.95 38.51 38.59 37.67 37.75 38.11 37.72 37.57 37.45 37.30 36.56 36.51 34.79 38.37 38.30 35.39 34.05 35.40 37.29 37.79 38.70 37.32 37.68
41.90 41.73 41.76 41.50 40.35 39.05 38.98 39.57 39.97 39.38 39.50 40.12 40.06 40.14 40.26 40.21 39.84 38.97 38.61 40.05 38.28 38.10 38.30 38.12 38.15 39.37 37.70 38.41 37.76 37.08 37.03 37.18 36.51 35.56 38.72 35.31 34.21 35.23 35.86 36.07 37.25 38.66 36.75
41.58 41.37 41.54 41.34 40.75 40.19 39.83 39.88 39.87 39.59 39.54 39.67 40.14 40.07 40.29 40.48 40.12 39.92 39.92 39.72 39.56 39.12 39.42 38.82 39.11 38.91 38.72 38.35 38.12 37.80 38.00 38.58 36.97 36.77 37.52 39.16 36.88 35.09 34.25 34.91 34.60 34.73 36.69
41.32 41.03 40.82 40.73 40.39 39.99 40.07 39.97 39.87 39.94 39.84 39.63 40.28 40.78 40.97 40.93 40.99 40.71 40.23 39.73 39.53 39.94 40.24 40.56 40.44 39.83 39.33 39.49 38.43 38.35 38.44 37.53 37.27 35.88 36.52 37.36 36.97 35.23 34.86 33.90 32.89 32.67 33.72
40.89 40.33 40.65 40.64 40.29 39.76 39.24 39.20 39.45 39.38 39.90 40.04 40.10 40.34 40.97 41.34 41.69 40.64 40.52 39.82 39.51 39.43 40.27 40.53 40.62 42.07 44.99 43.48 40.31 39.04 38.66 37.41 37.07 36.39 35.71 35.99 36.20 32.96 33.22 33.00 34.23 31.11 31.45
41.12 41.06 40.54 40.01 39.71 39.51 39.05 38.97 38.57 38.27 38.14 38.68 39.14 40.15 40.07 41.70 45.37 46.91 44.13 40.09 40.25 40.04 39.88 40.18 40.94 44.90 45.62 48.16 48.55 47.92 41.78 37.74 36.93 36.60 36.20 35.14 36.01 35.71 34.56 33.01 33.31 30.59 29.65
41.34 41.78 41.11 40.26 40.10 39.73 39.58 38.87 38.47 37.77 37.26 37.28 37.65 38.38 39.10 39.76 45.90 48.01 48.86 44.35 40.44 40.08 39.94 40.56 40.36 41.69 43.93 42.42 45.57 48.37 48.70 49.16 45.37 39.23 36.70 36.57 36.35 37.46 33.99 30.24 31.59 30.92 31.25
41.81 42.01 42.03 40.57 40.16 40.12 38.98 38.56 38.22 37.01 37.16 37.45 37.77 37.73 38.02 39.70 45.46 47.31 48.48 45.84 44.59 42.99 42.08 41.88 41.23 41.38 41.73 41.59 40.62 40.34 41.36 42.71 44.45 46.51 43.26 40.39 40.09 38.39 36.01 36.20 34.45 32.86 31.61
42.34 42.62 42.75 41.63 40.53 40.01 39.45 39.03 38.41 36.90 36.88 37.57 37.92 38.02 37.26 39.07 45.16 47.22 46.99 43.53 43.38 43.39 44.46 44.13 42.86 42.22 44.45 46.49 41.82 39.21 39.74 40.24 44.07 46.56 47.13 47.86 46.60 46.10 39.90 34.45 33.20 32.70 31.95
43.60 43.92 43.14 42.02 40.65 39.96 39.91 39.61 38.70 37.23 38.24 38.40 38.12 37.90 40.92 39.55 43.80 46.56 47.04 42.90 40.62 41.34 41.49 42.95 46.33 45.42 46.21 47.16 44.11 42.76 40.78 39.61 39.76 40.43 40.18 43.17 45.97 46.50 47.46 38.40 36.62 34.62 33.54
44.15 43.24 42.42 42.05 41.17 40.67 39.83 38.80 38.28 37.95 37.43 36.94 37.18 38.28 37.73 39.03 39.39 45.15 47.08 43.21 42.77 42.15 41.94 41.97 43.34 45.84 46.94 47.99 48.32 45.25 43.08 43.28 42.04 41.22 38.75 38.50 38.11 39.07 43.16 44.07 38.11 36.97 32.07
43.02 42.67 42.55 42.12 42.07 41.89 39.43 39.15 38.92 37.84 36.69 36.65 36.31 37.69 38.31 38.40 42.64 44.56 46.77 47.61 46.26 42.30 42.32 43.80 44.02 46.22 47.04 47.41 47.25 48.04 48.59 48.43 45.21 39.95 39.47 37.23 35.74 35.98 37.72 42.02 38.94 38.08 38.67
42.71 42.97 42.03 41.95 41.56 41.17 40.04 39.95 39.04 38.58 37.28 37.63 37.04 37.55 38.72 38.78 39.38 44.73 47.04 47.72 48.05 45.29 44.23 45.44 47.03 47.10 47.46 47.69 48.29 48.26 48.32 46.14 44.62 41.67 38.47 38.56 37.67 38.43 36.99 36.28 39.28 39.01 36.71
42.33 41.92 41.75 40.94 42.10 41.57 40.86 40.23 38.81 38.52 37.75 37.86 37.45 36.99 37.04 37.48 38.37 38.94 39.65 40.04 43.44 43.54 44.44 43.81 44.49 45.00 45.49 45.04 44.74 45.79 45.81 45.12 44.08 42.81 40.02 39.83 39.22 36.77 35.55 35.66 35.16 35.53 35.51
41.74 41.44 40.94 40.79 40.22 40.09 40.23 40.38 40.35 40.24 39.98 38.21 37.78 37.72 36.96 36.55 37.98 42.86 42.43 41.40 41.36 42.79 44.19 43.00 40.15 39.66 39.51 39.61 39.88 40.64 42.36 42.37 42.64 43.26 42.23 38.93 37.64 36.53 35.39 35.00 34.41 33.98 34.06
40.84 40.92 40.64 40.28 39.45 39.12 38.35 38.46 42.40 43.87 44.68 45.46 45.51 41.68 40.19 42.98 44.29 44.19 43.97 43.73 43.50 43.73 39.35 36.85 37.99 38.85 38.78 39.07 38.81 38.27 38.98 41.28 40.99 40.83 41.58 39.65 37.84 36.58 35.97 34.72 34.65 33.28 32.56
39.73 39.82 39.13 39.86 38.13 37.15 36.55 35.69 35.05 37.74 42.18 43.61 43.41 43.07 42.91 42.52 42.42 42.13 42.17 41.98 41.33 40.18 34.17 33.39 34.90 37.20 38.51 39.43 39.29 38.54 38.48 39.87 40.87 40.40 40.36 40.08 38.89 37.79 37.68 35.18 34.43 33.91 33.43
39.19 42.07 38.73 37.20 36.12 35.42 34.98 34.67 34.03 33.56 33.32 34.13 38.96 40.44 40.69 40.56 40.40 40.14 39.73 37.46 32.84 33.98 31.81 31.66 33.05 35.46 36.59 37.13 37.59 37.63 38.01 39.01 39.03 39.23 39.70 40.22 39.91 38.30 36.75 36.01 34.77 33.88 33.92
38.13 37.52 36.87 35.85 34.77 35.47 34.22 33.45 33.23 33.06 32.83 32.92 33.56 35.48 37.11 38.84 39.12 38.74 38.38 32.20 30.71 31.13 31.71 32.96 34.38 34.66 34.96 35.84 36.42 37.02 37.42 37.72 38.60 38.50 38.58 39.45 39.60 38.30 36.92 36.86 35.49 36.33 35.54
36.92 39.80 39.48 35.44 34.03 33.50 33.06 32.62 32.23 32.18 32.26 31.37 31.12 31.10 32.34 33.20 32.24 31.30 32.28 32.67 33.45 33.24 33.37 33.41 34.02 34.59 34.95 35.33 35.58 35.66 35.88 36.39 37.26 38.40 37.92 38.24 39.15 38.88 37.48 36.33 35.67 34.89 35.07
35.61 35.28 38.17 35.05 33.04 32.74 32.29 32.28 32.35 31.39 30.91 30.70 30.72 32.10 37.54 34.86 33.23 33.10 33.19 33.21 32.95 33.09 33.29 34.10 34.33 34.48 35.20 35.58 35.79 35.46 35.30 35.49 36.10 37.15 38.13 37.61 37.85 37.80 38.10 37.58 36.30 35.46 34.95
34.45 33.91 33.57 33.13 33.10 33.04 32.60 32.48 31.47 31.24 31.09 30.44 29.69 31.34 36.47 32.79 32.81 32.74 32.72 32.93 33.35 34.01 34.69 34.84 34.43 34.45 34.44 34.32 34.60 35.17 34.97 34.94 35.57 36.08 36.49 38.14 37.55 37.47 37.92 37.27 36.15 35.17 34.33
33.67 33.27 33.02 32.75 33.02 34.99 32.89 31.73 31.02 30.62 30.31 29.92 29.89 31.25 31.37 29.65 30.92 32.35 32.87 33.14 33.72 34.15 34.83 34.87 34.31 33.96 34.87 34.97 34.84 34.50 34.11 34.04 35.56 36.60 36.25 36.10 37.35 37.18 37.22 36.77 36.05 34.64 33.32
33.41 32.93 32.47 32.09 31.95 31.57 31.06 30.58 30.15 31.96 30.92 30.52 30.54 30.82 30.03 32.19 32.13 32.21 32.41 33.02 32.87 33.90 34.50 34.20 34.00 33.57 33.62 33.80 34.29 34.41 34.58 35.05 36.10 35.61 35.72 35.45 34.85 37.39 37.02 36.04 35.43 34.48 33.47
33.21 32.78 31.99 31.65 31.52 31.10 30.63 30.68 29.95 29.83 30.19 31.16 31.34 32.54 32.01 31.99 31.87 32.07 32.46 32.88 32.97 33.65 33.60 33.82 33.90 33.71 33.67 33.43 33.44 33.78 34.59 35.14 35.24 35.23 34.77 35.33 35.06 35.23 36.53 35.16 34.62 33.75 32.87
32.86 32.56 31.84 31.67 31.35 30.91 30.32 29.97 29.48 29.69 29.74 31.02 32.60 32.21 31.98 31.63 31.66 32.02 32.29 32.90 33.08 32.93 33.00 33.19 33.50 33.95 34.15 34.09 34.35 34.72 35.28 35.15 34.93 35.90 35.86 35.23 34.99 35.22 36.18 34.15 33.81 33.00 32.48
MSLP
1017.03 1017.07 1017.16 1017.11 1017.25 1017.41 1017.56 1017.55 1017.59 1017.79 1017.99 1018.29 1018.42 1018.64 1018.84 1019.05 1019.24 1019.51 1019.64 1019.67 1019.91 1020.17 1020.32 1020.47 1020.63 1020.90 1021.28 1021.57 1021.84 1022.08 1022.27 1022.42 1022.25 1020.65 1020.91 1021.15 1021.45 1021.33 1021.07 1021.08 1021.10 1021.08 1020.81
1016.41 1016.43 1016.45 1016.54 1016.78 1017.04 1017.00 1016.83 1017.00 1017.07 1017.29 1017.45 1017.59 1017.67 1017.76 1018.03 1018.24 1018.56 1018.73 1018.74 1019.01 1019.22 1019.52 1019.86 1019.83 1020.14 1020.22 1020.41 1020.78 1020.84 1020.94 1021.03 1021.07 1020.39 1019.95 1020.45 1020.67 1020.50 1020.37 1020.30 1020.03 1020.11 1020.21
1016.16 1016.25 1016.23 1016.24 1016.40 1016.42 1016.31 1016.33 1016.38 1016.44 1016.51 1016.57 1016.63 1016.81 1017.04 1017.21 1017.42 1017.37 1017.62 1017.81 1017.96 1018.17 1018.47 1018.66 1018.56 1018.95 1019.14 1019.47 1019.62 1019.70 1019.82 1019.85 1020.06 1019.90 1019.11 1019.02 1019.39 1019.71 1019.96 1019.95 1019.61 1019.45 1019.43
1015.61 1015.84 1015.87 1015.89 1015.83 1015.73 1015.70 1015.78 1015.81 1015.75 1015.80 1015.88 1016.08 1016.14 1016.06 1016.10 1016.29 1016.55 1016.72 1016.95 1017.11 1017.10 1016.96 1017.08 1017.30 1017.52 1017.64 1017.85 1018.10 1018.30 1018.38 1018.68 1018.93 1018.94 1018.68 1018.47 1018.68 1018.97 1019.20 1019.38 1019.45 1019.03 1018.90
1015.14 1015.22 1015.21 1015.12 1015.07 1015.05 1015.07 1015.06 1015.06 1015.10 1015.03 1015.12 1015.25 1015.20 1015.02 1014.98 1014.97 1015.25 1015.57 1015.72 1015.85 1015.90 1015.91 1015.86 1015.77 1015.89 1015.86 1016.07 1016.55 1016.69 1017.08 1017.34 1017.63 1017.83 1017.80 1018.04 1017.89 1018.43 1018.23 1018.30 1018.69 1018.40 1018.39
1014.77 1014.68 1014.62 1014.54 1014.40 1014.36 1014.30 1014.26 1014.27 1014.21 1014.21 1014.20 1014.18 1014.02 1013.96 1013.96 1014.10 1014.15 1014.22 1014.39 1014.46 1014.48 1014.32 1014.33 1014.47 1014.62 1014.85 1014.83 1014.75 1014.98 1015.71 1016.19 1016.40 1016.74 1017.10 1017.10 1016.62 1016.79 1017.07 1017.64 1018.05 1018.43 1018.44
1014.57 1014.27 1014.05 1014.11 1013.99 1013.70 1013.55 1013.67 1013.62 1013.56 1013.53 1013.56 1013.46 1013.46 1013.15 1012.79 1012.55 1012.54 1012.75 1013.13 1013.50 1013.45 1013.39 1013.29 1013.42 1013.48 1013.60 1013.81 1013.92 1013.85 1013.79 1013.91 1014.46 1015.22 1015.23 1015.66 1015.90 1015.67 1016.13 1016.67 1017.26 1017.44 1017.49
1014.08 1013.82 1013.64 1013.63 1013.42 1013.25 1013.32 1013.20 1013.14 1013.20 1013.11 1012.92 1012.66 1012.57 1012.56 1012.13 1012.12 1012.00 1011.95 1012.09 1011.98 1012.00 1012.08 1012.46 1012.72 1012.78 1012.75 1012.80 1012.96 1012.86 1012.78 1012.70 1012.58 1012.68 1013.10 1013.28 1013.85 1014.44 1014.82 1015.02 1015.68 1016.25 1016.74
1013.51 1013.21 1013.03 1013.13 1013.00 1012.90 1012.75 1012.63 1012.46 1012.54 1012.39 1012.11 1011.99 1012.01 1012.11 1011.58 1011.05 1010.98 1011.31 1011.59 1011.84 1011.99 1012.27 1012.17 1012.02 1011.71 1011.60 1011.70 1011.97 1012.09 1012.02 1011.70 1011.36 1011.72 1011.78 1011.68 1012.19 1012.79 1013.61 1014.34 1015.15 1015.86 1015.96
1012.97 1012.88 1012.50 1012.64 1012.78 1012.61 1012.41 1012.16 1011.99 1012.02 1012.00 1011.63 1011.31 1011.07 1010.83 1010.59 1010.39 1010.38 1010.34 1010.72 1011.09 1010.96 1010.55 1010.07 1010.31 1010.70 1011.09 1011.07 1010.87 1011.09 1011.09 1010.72 1010.90 1011.08 1011.22 1010.91 1010.82 1011.10 1011.82 1012.74 1013.17 1014.21 1014.81
1012.64 1012.56 1012.24 1012.09 1012.25 1012.02 1011.99 1011.88 1011.82 1011.68 1011.59 1011.41 1011.16 1010.74 1010.53 1010.07 1009.44 1009.50 1009.59 1009.51 1009.51 1009.51 1009.75 1009.96 1009.98 1009.89 1009.82 1010.12 1010.02 1010.10 1009.78 1009.72 1009.91 1010.12 1010.43 1010.67 1010.51 1010.65 1010.76 1011.34 1012.14 1012.51 1013.40
1012.28 1012.17 1011.93 1011.79 1011.73 1011.63 1011.75 1011.46 1011.31 1011.25 1011.20 1010.84 1010.58 1010.35 1009.92 1009.55 1009.29 1009.08 1009.03 1009.02 1009.34 1009.75 1009.47 1009.22 1009.09 1008.87 1008.99 1008.98 1008.87 1008.78 1008.72 1008.65 1008.64 1009.01 1009.42 1009.82 1009.92 1010.18 1010.20 1010.74 1011.23 1011.47 1011.68
1012.04 1011.85 1011.87 1011.77 1011.55 1011.34 1011.35 1011.06 1011.12 1010.84 1010.71 1010.46 1010.28 1009.89 1009.46 1009.36 1009.22 1008.98 1008.83 1008.79 1008.80 1008.89 1008.97 1009.02 1008.80 1008.68 1008.50 1008.26 1008.06 1007.80 1007.73 1007.73 1007.81 1008.05 1008.39 1008.58 1008.80 1008.85 1009.34 1010.07 1010.43 1010.92 1011.40
1012.03 1011.82 1011.57 1011.54 1011.43 1011.22 1010.94 1010.81 1010.77 1010.51 1010.34 1010.11 1009.80 1009.70 1009.56 1009.31 1009.06 1008.80 1008.75 1008.56 1008.53 1008.67 1008.50 1008.45 1008.46 1008.29 1007.89 1007.63 1007.31 1007.03 1006.78 1006.80 1006.84 1006.99 1007.30 1007.42 1007.84 1008.51 1008.90 1009.20 1009.86 1010.51 1010.87
1011.69 1011.49 1011.46 1011.52 1011.30 1011.04 1010.84 1010.69 1010.40 1009.88 1009.77 1009.58 1009.57 1009.39 1009.31 1009.11 1008.80 1008.74 1008.56 1008.67 1008.52 1008.42 1008.07 1008.02 1008.10 1007.82 1007.60 1007.40 1007.18 1006.84 1006.49 1006.27 1006.11 1006.18 1006.27 1006.68 1007.11 1007.59 1008.09 1008.50 1008.96 1009.57 1009.75
1011.56 1011.36 1011.31 1011.31 1011.10 1010.92 1010.77 1010.42 1009.99 1009.75 1009.26 1008.99 1008.77 1008.81 1008.77 1008.66 1008.51 1008.62 1008.68 1008.58 1008.35 1008.14 1007.96 1008.04 1007.87 1007.60 1007.29 1007.02 1006.84 1006.58 1006.25 1005.98 1005.85 1005.81 1005.74 1005.86 1006.23 1006.67 1007.15 1007.67 1008.11 1008.52 1009.02
1011.25 1011.12 1011.10 1011.00 1010.85 1010.83 1010.70 1010.52 1010.33 1009.81 1009.67 1009.44 1009.28 1009.18 1009.23 1009.09 1008.73 1008.53 1008.58 1008.55 1008.41 1008.23 1008.30 1008.29 1008.15 1007.65 1007.23 1006.93 1006.61 1006.33 1005.96 1005.61 1005.37 1005.25 1005.15 1005.22 1005.46 1005.75 1006.24 1006.67 1007.06 1007.58 1008.08
1010.83 1010.90 1011.07 1010.91 1010.87 1010.66 1010.59 1010.43 1010.33 1010.36 1010.17 1009.94 1009.83 1009.56 1009.36 1009.21 1008.95 1008.76 1008.63 1008.66 1008.61 1008.59 1008.55 1008.39 1008.14 1007.72 1007.34 1006.98 1006.50 1006.10 1005.67 1005.26 1005.02 1004.82 1004.65 1004.52 1004.61 1004.97 1005.37 1005.72 1006.13 1006.55 1006.99
1010.73 1010.62 1010.55 1010.34 1010.20 1010.15 1010.17 1010.27 1010.31 1010.26 1010.14 1010.02 1009.66 1009.66 1009.43 1009.45 1009.10 1009.00 1008.85 1008.75 1008.62 1008.63 1008.50 1008.20 1007.84 1007.42 1007.07 1006.74 1006.32 1005.94 1005.50 1005.11 1004.69 1004.39 1004.17 1004.07 1004.00 1004.20 1004.46 1004.81 1005.29 1005.60 1006.07
1010.39 1010.24 1010.04 1010.03 1010.06 1010.01 1009.89 1009.97 1010.11 1010.16 1010.08 1010.06 1009.93 1009.77 1009.59 1009.38 1009.18 1009.39 1009.02 1008.56 1008.37 1008.42 1008.25 1007.88 1007.53 1007.14 1006.83 1006.43 1006.02 1005.63 1005.19 1004.81 1004.41 1004.00 1003.78 1003.59 1003.48 1003.51 1003.65 1004.02 1004.46 1004.93 1005.34
1010.13 1010.11 1009.93 1009.85 1009.87 1009.87 1009.82 1009.77 1009.77 1009.81 1010.05 1010.10 1009.95 1009.44 1009.05 1009.06 1009.12 1009.05 1008.66 1008.41 1008.29 1008.21 1007.95 1007.57 1007.22 1006.88 1006.53 1006.15 1005.69 1005.31 1004.92 1004.52 1004.17 1003.80 1003.36 1003.11 1002.97 1002.90 1002.96 1003.18 1003.61 1004.07 1004.58
1010.11 1010.04 1009.85 1010.04 1010.00 1009.97 1009.78 1009.86 1009.72 1009.99 1009.83 1009.56 1009.34 1009.37 1008.85 1008.83 1009.09 1008.79 1008.43 1008.31 1008.08 1007.93 1007.69 1007.34 1006.97 1006.59 1006.23 1005.89 1005.59 1005.06 1004.44 1004.11 1003.81 1003.52 1003.20 1002.61 1002.37 1002.27 1002.29 1002.49 1002.86 1003.35 1003.92
1009.92 1009.98 1009.96 1009.92 1009.81 1009.74 1009.59 1009.73 1010.00 1009.68 1009.83 1009.62 1009.15 1008.69 1008.50 1008.59 1008.72 1008.44 1008.27 1008.20 1007.90 1007.62 1007.28 1006.95 1006.60 1006.19 1005.80 1005.47 1005.17 1004.82 1004.38 1003.98 1003.59 1003.13 1002.86 1002.42 1001.96 1001.64 1001.66 1001.79 1002.16 1002.67 1003.21
1009.65 1009.80 1009.77 1009.92 1009.75 1009.82 1009.68 1009.24 1009.38 1009.68 1009.42 1009.25 1008.81 1008.52 1008.27 1008.32 1008.32 1008.06 1007.92 1007.91 1007.58 1007.30 1006.92 1006.55 1006.18 1005.75 1005.31 1004.99 1004.67 1004.26 1003.87 1003.56 1003.13 1002.87 1002.68 1002.15 1001.77 1001.24 1001.03 1001.21 1001.50 1001.91 1002.44
1009.68 1009.53 1009.43 1009.56 1009.56 1009.75 1009.57 1009.50 1009.35 1009.55 1009.09 1009.02 1008.51 1008.37 1008.03 1007.86 1007.89 1007.81 1007.73 1007.55 1007.23 1006.90 1006.44 1006.04 1005.64 1005.17 1004.77 1004.40 1004.01 1003.61 1003.14 1002.81 1002.46 1002.24 1001.96 1001.64 1001.15 1000.94 1000.48 1000.62 1000.96 1001.39 1001.92
1009.43 1009.18 1009.24 1009.44 1009.09 1008.83 1009.01 1008.86 1008.62 1008.94 1008.99 1008.53 1008.37 1008.27 1007.74 1007.50 1007.42 1007.56 1007.37 1007.10 1006.87 1006.50 1006.01 1005.56 1005.09 1004.60 1004.16 1003.73 1003.23 1002.73 1002.34 1001.99 1001.63 1001.28 1000.98 1000.72 1000.39 1000.16 999.95 1000.09 1000.43 1000.84 1001.35
Wind_Speed
7 6 8 8 8 7 8 8 9 7 7 8 9 8 9 9 9 10 11 11 12 12 11 11 13 11 8 8 8 7 9 9 11 10 6 6 6 7 6 5 6 6 6
6 5 7 6 6 7 8 8 6 8 6 9 8 9 9 9 9 11 12 12 13 12 12 11 12 8 11 10 8 11 11 10 10 16 9 5 8 7 6 6 6 6 5
4 5 6 6 6 7 8 7 7 7 7 8 8 9 9 10 10 12 12 11 11 11 11 12 13 11 12 8 10 10 9 9 10 10 11 6 6 3 5 5 5 5 5
3 4 6 7 7 7 7 6 7 7 7 7 8 9 9 10 10 10 10 10 10 11 12 13 13 13 13 12 11 13 10 10 9 9 10 9 5 3 3 4 5 4 4
4 5 7 7 6 6 6 7 7 7 7 7 7 8 9 10 9 10 10 10 10 11 12 12 13 16 23 18 9 11 11 10 9 9 10 7 7 4 6 4 7 2 3
5 7 6 6 6 7 7 7 7 7 7 7 8 10 9 8 14 19 14 11 11 12 13 12 12 19 20 26 26 26 15 11 11 9 9 10 12 7 4 5 4 3 3
6 8 7 6 7 7 7 7 8 8 6 7 8 8 10 10 19 21 22 11 10 11 11 10 9 9 17 13 20 24 25 27 24 13 13 13 11 9 6 5 5 4 4
8 8 7 6 7 7 6 7 7 5 7 7 8 8 9 10 19 21 22 12 12 13 12 10 10 10 11 12 11 11 13 13 14 13 16 15 13 8 11 9 8 5 0
9 8 7 6 7 7 7 7 7 5 6 7 6 7 8 11 17 20 16 8 9 10 8 8 10 13 17 21 11 11 12 13 14 22 25 24 25 25 14 6 5 4 4
7 8 7 6 7 7 7 8 5 4 6 5 7 7 12 11 15 15 14 4 5 6 8 12 19 14 18 21 12 11 13 13 10 10 8 15 19 17 26 13 9 8 3
6 7 7 6 7 7 6 4 5 6 5 6 7 7 8 9 9 14 15 8 9 7 6 5 5 14 15 20 20 12 15 12 12 10 8 7 7 6 7 11 11 9 5
6 7 7 7 5 4 5 6 6 5 6 7 6 7 5 6 12 13 15 15 9 5 6 6 7 14 16 19 16 21 24 20 9 7 8 8 7 6 6 8 12 10 9
6 7 6 7 6 5 5 6 5 5 4 6 4 6 6 4 4 8 9 10 10 6 4 7 11 14 17 16 22 24 22 10 8 5 8 8 8 8 8 4 6 9 5
6 7 6 6 7 6 4 4 4 5 4 4 4 4 4 4 4 2 2 2 4 5 8 7 9 12 15 13 11 10 9 9 9 9 7 8 6 5 7 6 6 7 6
6 6 6 4 5 5 5 5 5 5 5 4 4 3 3 4 3 4 4 3 3 4 8 4 3 3 5 5 6 6 6 7 8 7 7 7 7 7 6 6 5 6 7
5 4 4 4 4 4 4 6 7 9 8 5 3 3 1 3 7 9 9 10 10 13 4 3 5 5 5 6 6 6 5 9 7 7 7 7 7 7 7 5 5 6 7
5 5 4 5 4 4 4 3 4 5 6 8 8 8 8 7 8 9 10 11 10 9 3 3 4 5 6 6 5 5 6 6 7 7 7 7 7 7 9 7 8 7 7
5 8 4 4 4 4 3 3 2 2 3 3 5 6 9 9 9 9 9 6 4 4 2 3 4 5 6 6 6 6 6 5 5 6 7 7 7 7 6 7 8 8 8
5 4 4 4 3 3 2 2 2 2 2 2 2 4 5 7 8 9 9 2 2 3 4 5 5 6 6 6 6 6 6 7 6 6 6 6 7 7 7 8 8 14 13
5 8 5 3 3 2 2 3 2 2 1 2 3 2 3 3 2 2 3 3 4 6 7 6 6 6 6 7 6 6 7 7 7 6 6 6 6 7 8 8 9 8 8
4 4 6 3 3 3 3 3 2 2 2 3 3 3 7 4 4 6 5 4 5 5 6 5 5 6 6 7 7 7 7 7 7 7 7 6 7 7 7 8 8 9 8
3 4 3 3 3 3 3 2 2 3 3 3 2 3 7 2 3 4 4 4 6 5 5 5 6 7 6 7 7 9 8 7 7 7 7 7 7 7 7 7 8 9 8
3 3 3 3 3 4 2 2 3 3 4 4 4 3 1 2 3 4 5 5 5 6 6 6 6 7 7 7 7 8 8 8 7 6 9 6 8 7 7 8 8 7 8
3 3 3 4 2 3 4 3 3 6 4 4 4 3 1 3 4 6 5 5 8 7 6 6 6 9 9 9 8 8 8 8 8 8 10 8 7 9 8 7 8 10 9
3 3 3 4 3 4 4 4 3 4 4 5 3 4 4 3 5 5 5 6 6 6 7 8 7 9 11 14 13 15 15 16 13 15 8 10 10 11 8 7 8 7 7
4 4 3 4 4 3 4 4 4 4 5 4 3 5 4 4 5 5 7 6 6 7 9 7 9 13 15 13 13 17 16 18 14 15 8 8 8 7 7 8 11 7 8
Wind_Direction
248 230 226 231 225 223 227 233 227 225 209 211 213 210 213 211 207 205 217 216 212 221 218 211 221 213 216 214 209 210 214 207 236 264 219 211 226 227 239 248 260 256 257
276 255 246 246 231 231 233 232 220 226 212 217 209 213 215 214 209 211 220 222 218 221 220 222 228 219 224 217 211 218 219 213 220 249 251 214 220 216 229 226 232 230 232
284 274 277 265 251 246 247 239 225 223 221 217 211 216 218 218 217 219 224 224 222 221 221 220 228 215 228 221 218 223 223 224 222 238 255 235 209 185 231 247 238 235 237
284 269 272 270 261 259 263 252 240 228 224 222 219 222 220 217 221 221 220 225 223 221 219 221 224 217 222 220 215 222 222 221 224 229 243 251 229 189 201 216 249 226 245
291 285 276 278 270 267 264 257 250 239 234 225 220 224 223 221 220 219 217 216 218 225 227 224 222 222 225 224 219 222 218 220 224 229 239 241 231 200 213 187 227 206 246
282 278 274 277 273 264 262 253 245 241 233 226 225 228 230 232 235 234 219 216 218 223 231 227 227 236 242 243 241 234 212 219 224 227 240 238 237 224 187 202 196 188 244
290 288 279 271 278 269 265 263 251 246 232 236 238 227 238 229 231 234 233 221 222 230 233 232 227 228 235 236 249 250 246 235 221 227 230 230 239 227 178 173 200 183 219
283 280 289 274 271 284 277 268 274 251 241 245 246 233 235 249 241 239 239 231 225 229 232 231 230 236 228 229 231 234 234 236 241 233 225 232 229 213 195 195 199 189 353
271 280 284 278 279 284 277 274 265 249 255 246 243 255 237 257 251 243 239 233 235 245 256 240 230 235 237 243 231 235 240 241 239 249 250 246 229 230 204 140 170 164 202
283 285 287 284 265 274 271 276 270 247 264 274 261 242 250 258 263 253 239 217 219 223 223 230 239 239 251 252 240 239 249 244 226 241 249 253 260 236 222 204 181 200 172
291 287 287 279 264 262 275 277 282 285 282 281 272 274 262 251 255 250 241 211 222 229 244 256 242 238 250 259 251 243 242 247 235 234 233 241 239 228 216 209 197 193 179
277 280 285 294 294 299 285 284 288 282 283 282 286 291 263 262 261 254 250 244 243 229 242 249 242 237 246 249 249 251 261 262 245 213 218 220 216 217 212 215 196 206 206
299 304 317 313 303 299 296 299 303 295 278 284 271 284 300 305 291 294 269 264 264 260 247 270 284 282 281 275 257 252 252 249 245 224 218 222 212 215 203 184 185 205 191
312 308 300 307 311 310 300 278 278 289 284 273 279 290 304 312 304 290 276 274 275 268 271 272 271 270 267 273 275 268 251 243 234 230 220 217 202 179 192 178 182 188 192
300 294 303 288 290 308 301 281 283 267 238 262 264 264 297 311 294 316 315 297 274 263 297 274 261 262 272 271 269 266 258 246 243 232 227 204 204 194 197 179 177 176 195
300 297 289 307 313 297 297 306 294 281 296 281 312 199 275 344 346 343 338 332 323 315 303 289 289 281 277 274 273 272 256 261 243 243 233 207 204 198 197 180 181 183 191
278 292 294 288 284 295 298 296 320 327 2 44 40 36 25 3 0 351 339 340 345 352 0 326 309 310 308 301 283 272 275 254 249 237 232 218 209 200 201 191 187 188 193
296 285 264 278 277 284 293 303 311 321 313 325 354 12 9 2 356 356 354 359 356 359 329 313 303 299 301 300 297 296 290 272 251 248 244 227 214 203 199 199 193 188 188
289 273 270 274 268 265 269 291 261 258 266 280 335 352 2 345 349 350 342 337 321 312 302 306 299 306 306 303 304 296 294 293 274 252 244 242 219 204 205 204 199 197 191
277 284 289 282 287 279 233 226 242 253 276 301 300 294 316 338 351 302 297 312 333 321 317 306 309 303 301 297 294 299 299 299 291 274 248 243 235 217 212 198 195 195 199
288 290 284 266 249 245 236 226 208 195 248 267 279 266 310 343 328 320 326 333 328 305 305 298 302 299 299 298 286 291 292 290 291 294 264 243 237 230 218 207 200 197 194
266 273 274 263 252 244 241 233 220 240 245 245 249 272 307 335 306 315 324 315 315 295 297 300 303 302 300 302 310 307 283 276 287 290 299 269 240 231 222 210 197 194 189
262 270 264 252 241 256 249 237 258 247 260 253 251 264 311 318 285 315 318 311 303 298 293 294 295 298 297 296 296 292 294 296 297 286 293 286 280 237 222 214 200 189 186
230 241 251 262 260 259 254 241 241 260 254 255 263 281 314 297 309 314 314 299 312 294 293 292 294 297 298 299 294 292 290 293 292 283 294 282 283 273 222 210 201 194 189
249 240 237 245 239 258 271 271 270 271 264 265 279 292 291 292 303 303 298 290 302 291 294 297 295 296 295 294 292 291 287 287 284 282 275 276 264 279 233 204 196 191 182
261 255 246 251 239 232 243 253 246 254 265 273 290 281 283 298 302 293 298 283 284 289 297 295 296 295 295 297 293 291 294 293 289 289 279 268 262 265 228 196 194 184 180